Starlink 36313

operational
NORAD ID: 68156 Int'l Des: 2026-049 Owner: SPXS Country: US Constellation: starlink
LEOCIRCULARRETROGRADE

关于 Starlink 36313

正在加载描述...

实时位置

正在加载3D地球...

即将过境

高度历史

Altitude vs Time

uPlot chart will show altitude changes over time

两行轨道根数

1 68156C 26049Q 26072.91229167 .00491450 00000+0 57171-3 0 729
2 68156 97.2818 91.9117 0010075 251.9541 104.9500 16.08205463 16
Epoch: Mar 13, 2026 • Age: 71 hours

当前状态

高度 261.3 km
速度 7.75 km/s
星下点 52.03°N, 79.39°W
发射日期 Mar 13, 2026
运行时间 2 days
类型 internet

技术详情

分类 Payload
质量 575.00 kg
干质量 530.00 kg
总质量 575.00 kg
长度 0.30 m
直径 4.10 m
跨度 29.00 m
形状 Box + pan
制造商 SPXS
平台类型 Starlink V2MO
阶段状态 In Orbit
所有者/国家 SPXS/US

大型星座

Loading constellations...